| time (UTC) | temp F | wind direction | speed MPH | gust MPH | rain 1hr in | rain 24hr in | rain mn in | humidity % | barometer mb |
| 20260510023015 | 66 | 283 | 1.0 | 3.0 | 0.00 | 0.00 | 0.00 | 61 | 1017.7 |
| 20260510022616 | 66 | 283 | 1.0 | 4.0 | 0.00 | 0.00 | 0.00 | 60 | 1017.6 |
| 20260510022014 | 66 | 283 | 1.0 | 4.0 | 0.00 | 0.00 | 0.00 | 60 | 1017.6 |
| 20260510021516 | 66 | 283 | 1.0 | 5.0 | 0.00 | 0.00 | 0.00 | 60 | 1017.7 |
| 20260510021013 | 66 | 283 | 3.0 | 5.0 | 0.00 | 0.00 | 0.00 | 59 | 1017.7 |
| 20260510020514 | 66 | 281 | 3.0 | 5.0 | 0.00 | 0.00 | 0.00 | 59 | 1017.8 |
| 20260510020012 | 66 | 288 | 2.0 | 7.0 | 0.00 | 0.00 | 0.00 | 60 | 1017.8 |
| 20260510015512 | 67 | 292 | 4.0 | 9.0 | 0.00 | 0.00 | 0.00 | 59 | 1018.0 |
| 20260510015011 | 67 | 296 | 5.0 | 9.0 | 0.00 | 0.00 | 0.00 | 59 | 1018.0 |
| 20260510014511 | 67 | 269 | 4.0 | 7.0 | 0.00 | 0.00 | 0.00 | 59 | 1018.0 |
| 20260510014112 | 67 | 273 | 4.0 | 8.0 | 0.00 | 0.00 | 0.00 | 58 | 1018.2 |
| 20260510013512 | 67 | 280 | 3.0 | 8.0 | 0.00 | 0.00 | 0.00 | 58 | 1018.2 |
| 20260510013011 | 68 | 295 | 5.0 | 8.0 | 0.00 | 0.00 | 0.00 | 58 | 1018.1 |
| 20260510012511 | 68 | 286 | 3.0 | 5.0 | 0.00 | 0.00 | 0.00 | 58 | 1018.1 |
| 20260510012011 | 68 | 285 | 3.0 | 8.0 | 0.00 | 0.00 | 0.00 | 58 | 1018.1 |
| 20260510011511 | 67 | 255 | 3.0 | 8.0 | 0.00 | 0.00 | 0.00 | 59 | 1018.2 |
| 20260510011011 | 67 | 292 | 2.0 | 7.0 | 0.00 | 0.00 | 0.00 | 58 | 1018.2 |
| 20260510010510 | 68 | 278 | 3.0 | 7.0 | 0.00 | 0.00 | 0.00 | 58 | 1018.2 |
| 20260510010009 | 68 | 280 | 3.0 | 7.0 | 0.00 | 0.00 | 0.00 | 58 | 1018.3 |
| 20260510005510 | 68 | 269 | 2.0 | 7.0 | 0.00 | 0.00 | 0.00 | 60 | 1018.4 |
| 20260510005010 | 67 | 269 | 3.0 | 9.0 | 0.00 | 0.00 | 0.00 | 59 | 1018.6 |
| 20260510004510 | 68 | 288 | 5.0 | 9.0 | 0.00 | 0.00 | 0.00 | 59 | 1018.6 |
| 20260510004107 | 69 | 302 | 4.0 | 8.0 | 0.00 | 0.00 | 0.00 | 58 | 1018.6 |
| 20260510003508 | 69 | 294 | 4.0 | 8.0 | 0.00 | 0.00 | 0.00 | 58 | 1018.7 |
| 20260510003021 | 69 | 296 | 3.0 | 8.0 | 0.00 | 0.00 | 0.00 | 57 | 1018.6 |
| 20260510002511 | 68 | 292 | 4.0 | 10.0 | 0.00 | 0.00 | 0.00 | 59 | 1018.6 |
| 20260510002008 | 69 | 294 | 5.0 | 10.0 | 0.00 | 0.00 | 0.00 | 58 | 1018.8 |
| 20260510001513 | 68 | 275 | 2.0 | 8.0 | 0.00 | 0.00 | 0.00 | 59 | 1018.8 |
| 20260510001007 | 68 | 282 | 3.0 | 9.0 | 0.00 | 0.00 | 0.00 | 59 | 1018.6 |
| 20260510000507 | 68 | 294 | 3.0 | 9.0 | 0.00 | 0.00 | 0.00 | 59 | 1018.8 |
| 20260510000005 | 68 | 291 | 4.0 | 8.0 | 0.00 | 0.00 | 0.00 | 59 | 1019.0 |
| 20260509235505 | 68 | 261 | 4.0 | 8.0 | 0.00 | 0.00 | 0.00 | 60 | 1018.9 |
| 20260509235004 | 68 | 255 | 3.0 | 8.0 | 0.00 | 0.00 | 0.00 | 60 | 1019.0 |
| 20260509234513 | 68 | 323 | 3.0 | 9.0 | 0.00 | 0.00 | 0.00 | 59 | 1019.0 |
| 20260509234106 | 69 | 302 | 4.0 | 8.0 | 0.00 | 0.00 | 0.00 | 58 | 1019.1 |
| 20260509233503 | 69 | 247 | 3.0 | 8.0 | 0.00 | 0.00 | 0.00 | 59 | 1019.1 |
| 20260509233002 | 68 | 269 | 1.0 | 8.0 | 0.00 | 0.00 | 0.00 | 60 | 1019.1 |
| 20260509232504 | 69 | 275 | 5.0 | 9.0 | 0.00 | 0.00 | 0.00 | 60 | 1019.2 |
| 20260509232100 | 68 | 331 | 3.0 | 10.0 | 0.00 | 0.00 | 0.00 | 59 | 1019.2 |
| 20260509231600 | 69 | 286 | 7.0 | 10.0 | 0.00 | 0.00 | 0.00 | 59 | 1019.2 |
| 20260509231059 | 69 | 315 | 2.0 | 8.0 | 0.00 | 0.00 | 0.00 | 59 | 1019.3 |
| 20260509230559 | 69 | 325 | 4.0 | 10.0 | 0.00 | 0.00 | 0.00 | 60 | 1019.4 |
| 20260509230106 | 69 | 304 | 3.0 | 11.0 | 0.00 | 0.00 | 0.00 | 60 | 1019.5 |
| 20260509225557 | 69 | 300 | 6.0 | 11.0 | 0.00 | 0.00 | 0.00 | 60 | 1019.7 |
| 20260509225056 | 68 | 289 | 4.0 | 9.0 | 0.00 | 0.00 | 0.00 | 61 | 1019.7 |
| 20260509224556 | 68 | 272 | 3.0 | 8.0 | 0.00 | 0.00 | 0.00 | 61 | 1019.5 |
| 20260509224055 | 68 | 258 | 4.0 | 11.0 | 0.00 | 0.00 | 0.00 | 62 | 1019.7 |
| 20260509223055 | 70 | 276 | 3.0 | 9.0 | 0.00 | 0.00 | 0.00 | 60 | 1019.9 |
| 20260509222556 | 69 | 313 | 4.0 | 9.0 | 0.00 | 0.00 | 0.00 | 59 | 1019.9 |
| 20260509222054 | 69 | 283 | 6.0 | 9.0 | 0.00 | 0.00 | 0.00 | 60 | 1019.8 |
| 20260509221554 | 70 | 275 | 4.0 | 8.0 | 0.00 | 0.00 | 0.00 | 60 | 1019.8 |
| 20260509221055 | 70 | 307 | 3.0 | 8.0 | 0.00 | 0.00 | 0.00 | 59 | 1019.9 |
| 20260509220553 | 69 | 316 | 3.0 | 8.0 | 0.00 | 0.00 | 0.00 | 60 | 1019.7 |
| 20260509220056 | 69 | 285 | 3.0 | 8.0 | 0.00 | 0.00 | 0.00 | 61 | 1019.8 |
| 20260509215553 | 69 | 295 | 4.0 | 8.0 | 0.00 | 0.00 | 0.00 | 61 | 1019.8 |
| 20260509215054 | 68 | 275 | 4.0 | 9.0 | 0.00 | 0.00 | 0.00 | 62 | 1019.9 |
| 20260509214554 | 68 | 259 | 3.0 | 9.0 | 0.00 | 0.00 | 0.00 | 61 | 1020.0 |
| 20260509214052 | 69 | 270 | 4.0 | 10.0 | 0.00 | 0.00 | 0.00 | 60 | 1020.0 |
| 20260509213059 | 70 | 279 | 5.0 | 10.0 | 0.00 | 0.00 | 0.00 | 59 | 1019.9 |
| 20260509212553 | 69 | 289 | 4.0 | 9.0 | 0.00 | 0.00 | 0.00 | 60 | 1019.9 |
| 20260509212052 | 69 | 278 | 5.0 | 9.0 | 0.00 | 0.00 | 0.00 | 60 | 1020.0 |
| 20260509211601 | 70 | 321 | 5.0 | 8.0 | 0.00 | 0.00 | 0.00 | 60 | 1020.1 |
| 20260509211051 | 69 | 278 | 3.0 | 10.0 | 0.00 | 0.00 | 0.00 | 61 | 1020.1 |
| 20260509210550 | 69 | 259 | 3.0 | 11.0 | 0.00 | 0.00 | 0.00 | 62 | 1020.1 |
| 20260509210054 | 69 | 283 | 5.0 | 11.0 | 0.00 | 0.00 | 0.00 | 62 | 1020.1 |
| 20260509205549 | 69 | 299 | 3.0 | 9.0 | 0.00 | 0.00 | 0.00 | 61 | 1020.1 |
| 20260509205050 | 68 | 298 | 3.0 | 8.0 | 0.00 | 0.00 | 0.00 | 62 | 1020.0 |
| 20260509204549 | 67 | 253 | 4.0 | 9.0 | 0.00 | 0.00 | 0.00 | 63 | 1020.1 |
| 20260509204048 | 69 | 270 | 4.0 | 8.0 | 0.00 | 0.00 | 0.00 | 62 | 1020.4 |
| 20260509203045 | 68 | 240 | 2.0 | 6.0 | 0.00 | 0.00 | 0.00 | 63 | 1020.4 |
| 20260509202545 | 67 | 212 | 2.0 | 9.0 | 0.00 | 0.00 | 0.00 | 64 | 1020.5 |
| 20260509202044 | 68 | 246 | 4.0 | 9.0 | 0.00 | 0.00 | 0.00 | 63 | 1020.5 |
| 20260509201544 | 69 | 289 | 5.0 | 9.0 | 0.00 | 0.00 | 0.00 | 62 | 1020.6 |
| 20260509201046 | 68 | 325 | 2.0 | 9.0 | 0.00 | 0.00 | 0.00 | 63 | 1020.7 |
| 20260509200544 | 67 | 268 | 1.0 | 9.0 | 0.00 | 0.00 | 0.00 | 61 | 1020.7 |
| 20260509200041 | 68 | 277 | 5.0 | 9.0 | 0.00 | 0.00 | 0.00 | 64 | 1020.8 |
| 20260509195540 | 67 | 255 | 3.0 | 8.0 | 0.00 | 0.00 | 0.00 | 64 | 1021.0 |
| 20260509195038 | 66 | 258 | 2.0 | 11.0 | 0.00 | 0.00 | 0.00 | 65 | 1021.2 |
| 20260509194539 | 67 | 264 | 6.0 | 11.0 | 0.00 | 0.00 | 0.00 | 64 | 1021.2 |
| 20260509194039 | 66 | 227 | 3.0 | 9.0 | 0.00 | 0.00 | 0.00 | 65 | 1021.3 |
| 20260509193039 | 66 | 234 | 2.0 | 9.0 | 0.00 | 0.00 | 0.00 | 66 | 1021.3 |
| 20260509192536 | 66 | 225 | 4.0 | 9.0 | 0.00 | 0.00 | 0.00 | 65 | 1021.3 |
| 20260509192037 | 66 | 255 | 5.0 | 9.0 | 0.00 | 0.00 | 0.00 | 66 | 1021.2 |
| 20260509191536 | 66 | 252 | 4.0 | 9.0 | 0.00 | 0.00 | 0.00 | 67 | 1021.3 |
| 20260509191034 | 65 | 246 | 4.0 | 9.0 | 0.00 | 0.00 | 0.00 | 66 | 1021.2 |
| 20260509190535 | 65 | 273 | 2.0 | 8.0 | 0.00 | 0.00 | 0.00 | 66 | 1021.3 |
| 20260509190039 | 65 | 189 | 5.0 | 7.0 | 0.00 | 0.00 | 0.00 | 66 | 1021.4 |
| 20260509185534 | 66 | 302 | 5.0 | 10.0 | 0.00 | 0.00 | 0.00 | 66 | 1021.5 |
| 20260509185032 | 64 | 260 | 3.0 | 10.0 | 0.00 | 0.00 | 0.00 | 67 | 1021.6 |
| 20260509184534 | 66 | 281 | 4.0 | 8.0 | 0.00 | 0.00 | 0.00 | 67 | 1021.6 |
| 20260509184029 | 64 | 213 | 4.0 | 9.0 | 0.00 | 0.00 | 0.00 | 69 | 1021.7 |
| 20260509183030 | 63 | 200 | 3.0 | 9.0 | 0.00 | 0.00 | 0.00 | 70 | 1021.6 |
| 20260509182528 | 63 | 236 | 3.0 | 9.0 | 0.00 | 0.00 | 0.00 | 70 | 1021.7 |
| 20260509182028 | 64 | 270 | 6.0 | 9.0 | 0.00 | 0.00 | 0.00 | 68 | 1021.8 |
| 20260509181541 | 63 | 269 | 2.0 | 8.0 | 0.00 | 0.00 | 0.00 | 69 | 1021.7 |
| 20260509181027 | 63 | 262 | 4.0 | 10.0 | 0.00 | 0.00 | 0.00 | 69 | 1021.8 |
| 20260509180527 | 64 | 249 | 5.0 | 10.0 | 0.00 | 0.00 | 0.00 | 65 | 1021.8 |
| 20260509180028 | 64 | 225 | 2.0 | 6.0 | 0.00 | 0.00 | 0.00 | 67 | 1021.7 |
| 20260509175525 | 64 | 269 | 3.0 | 6.0 | 0.00 | 0.00 | 0.00 | 67 | 1021.7 |
| 20260509175025 | 64 | 318 | 3.0 | 5.0 | 0.00 | 0.00 | 0.00 | 65 | 1021.7 |
| 20260509174524 | 63 | 321 | 2.0 | 8.0 | 0.00 | 0.00 | 0.00 | 66 | 1021.7 |
| 20260509174024 | 63 | 298 | 4.0 | 8.0 | 0.00 | 0.00 | 0.00 | 66 | 1021.8 |
| 20260509173025 | 63 | 291 | 3.0 | 8.0 | 0.00 | 0.00 | 0.00 | 65 | 1021.7 |
| 20260509172521 | 63 | 311 | 3.0 | 8.0 | 0.00 | 0.00 | 0.00 | 65 | 1021.7 |
| 20260509172021 | 63 | 315 | 3.0 | 9.0 | 0.00 | 0.00 | 0.00 | 66 | 1021.7 |
| 20260509171520 | 63 | 315 | 3.0 | 9.0 | 0.00 | 0.00 | 0.00 | 67 | 1021.8 |
| 20260509171018 | 63 | 286 | 3.0 | 9.0 | 0.00 | 0.00 | 0.00 | 68 | 1021.8 |
| 20260509170518 | 62 | 282 | 4.0 | 9.0 | 0.00 | 0.00 | 0.00 | 69 | 1021.9 |
| 20260509170017 | 63 | 288 | 4.0 | 9.0 | 0.00 | 0.00 | 0.00 | 67 | 1022.0 |
| 20260509165515 | 63 | 297 | 4.0 | 9.0 | 0.00 | 0.00 | 0.00 | 67 | 1022.1 |
| 20260509165016 | 61 | 331 | 2.0 | 8.0 | 0.00 | 0.00 | 0.00 | 69 | 1022.0 |
| 20260509164514 | 61 | 338 | 2.0 | 5.0 | 0.00 | 0.00 | 0.00 | 70 | 1022.0 |
| 20260509164011 | 61 | 350 | 2.0 | 4.0 | 0.00 | 0.00 | 0.00 | 65 | 1022.1 |
| 20260509163012 | 61 | 336 | 0.0 | 1.0 | 0.00 | 0.00 | 0.00 | 66 | 1022.2 |
| 20260509162512 | 61 | 17 | 0.0 | 1.0 | 0.00 | 0.00 | 0.00 | 68 | 1022.2 |
| 20260509162013 | 61 | 299 | 0.0 | 2.0 | 0.00 | 0.00 | 0.00 | 71 | 1022.2 |
| 20260509161509 | 60 | 36 | 0.0 | 3.0 | 0.00 | 0.00 | 0.00 | 70 | 1022.4 |
| 20260509161008 | 60 | 349 | 0.0 | 2.0 | 0.00 | 0.00 | 0.00 | 69 | 1022.5 |
| 20260509160508 | 60 | 49 | 0.0 | 2.0 | 0.00 | 0.00 | 0.00 | 67 | 1022.6 |
| 20260509160008 | 59 | 51 | 0.0 | 3.0 | 0.00 | 0.00 | 0.00 | 68 | 1022.8 |
| 20260509155505 | 59 | 40 | 1.0 | 3.0 | 0.00 | 0.00 | 0.00 | 67 | 1022.8 |
| 20260509155004 | 60 | 24 | 0.0 | 2.0 | 0.00 | 0.00 | 0.00 | 69 | 1022.6 |
| 20260509154503 | 59 | 27 | 0.0 | 3.0 | 0.00 | 0.00 | 0.00 | 70 | 1022.8 |
| 20260509154004 | 58 | 55 | 1.0 | 4.0 | 0.00 | 0.00 | 0.00 | 71 | 1022.8 |
| 20260509153001 | 58 | 51 | 2.0 | 3.0 | 0.00 | 0.00 | 0.00 | 72 | 1022.8 |
| 20260509152600 | 58 | 53 | 0.0 | 4.0 | 0.00 | 0.00 | 0.00 | 74 | 1022.9 |
| 20260509152059 | 57 | 53 | 2.0 | 4.0 | 0.00 | 0.00 | 0.00 | 74 | 1023.0 |
| 20260509151557 | 57 | 82 | 0.0 | 3.0 | 0.00 | 0.00 | 0.00 | 75 | 1023.0 |
| 20260509151056 | 57 | 82 | 0.0 | 6.0 | 0.00 | 0.00 | 0.00 | 75 | 1023.1 |
| 20260509150554 | 56 | 82 | 2.0 | 6.0 | 0.00 | 0.00 | 0.00 | 76 | 1023.1 |
| 20260509150053 | 56 | 105 | 0.0 | 4.0 | 0.00 | 0.00 | 0.00 | 78 | 1023.2 |
| 20260509145552 | 55 | 271 | 0.0 | 2.0 | 0.00 | 0.00 | 0.00 | 79 | 1023.1 |
| 20260509145050 | 55 | 277 | 0.0 | 3.0 | 0.00 | 0.00 | 0.00 | 79 | 1023.2 |
| 20260509144550 | 54 | 265 | 0.0 | 3.0 | 0.00 | 0.00 | 0.00 | 80 | 1023.3 |
| 20260509144049 | 54 | 267 | 0.0 | 1.0 | 0.00 | 0.00 | 0.00 | 82 | 1023.5 |
| 20260509143047 | 53 | 280 | 0.0 | 1.0 | 0.00 | 0.00 | 0.00 | 83 | 1023.4 |
| 20260509142546 | 52 | 280 | 0.0 | 1.0 | 0.00 | 0.00 | 0.00 | 84 | 1023.5 |
| 20260509142046 | 52 | 280 | 0.0 | 1.0 | 0.00 | 0.00 | 0.00 | 85 | 1023.6 |
| 20260509141543 | 51 | 280 | 0.0 | 1.0 | 0.00 | 0.00 | 0.00 | 86 | 1023.7 |
| 20260509141042 | 51 | 280 | 0.0 | 1.0 | 0.00 | 0.00 | 0.00 | 86 | 1023.7 |
| 20260509140540 | 51 | 280 | 0.0 | 2.0 | 0.00 | 0.00 | 0.00 | 86 | 1023.7 |
| 20260509140043 | 51 | 280 | 0.0 | 2.0 | 0.00 | 0.00 | 0.00 | 87 | 1023.8 |
| 20260509135540 | 50 | 279 | 0.0 | 1.0 | 0.00 | 0.00 | 0.00 | 88 | 1023.9 |
| 20260509135038 | 50 | 279 | 0.0 | 1.0 | 0.00 | 0.00 | 0.00 | 89 | 1023.9 |
| 20260509134537 | 50 | 279 | 0.0 | 1.0 | 0.00 | 0.00 | 0.00 | 89 | 1023.9 |
| 20260509134035 | 50 | 279 | 0.0 | 1.0 | 0.00 | 0.00 | 0.00 | 90 | 1024.0 |
| 20260509133036 | 49 | 279 | 0.0 | 0.0 | 0.00 | 0.00 | 0.00 | 90 | 1024.0 |
| 20260509132535 | 49 | 279 | 0.0 | 0.0 | 0.00 | 0.00 | 0.00 | 91 | 1024.1 |
| 20260509132033 | 49 | 279 | 0.0 | 0.0 | 0.00 | 0.00 | 0.00 | 91 | 1024.1 |
| 20260509131532 | 49 | 279 | 0.0 | 0.0 | 0.00 | 0.00 | 0.00 | 91 | 1024.0 |
| 20260509131032 | 49 | 279 | 0.0 | 0.0 | 0.00 | 0.00 | 0.00 | 91 | 1023.9 |
| 20260509130534 | 49 | 279 | 0.0 | 0.0 | 0.00 | 0.00 | 0.00 | 91 | 1023.8 |
| 20260509130030 | 49 | 279 | 0.0 | 1.0 | 0.00 | 0.00 | 0.00 | 91 | 1023.8 |
| 20260509125530 | 49 | 279 | 0.0 | 1.0 | 0.00 | 0.00 | 0.00 | 92 | 1023.8 |
| 20260509125029 | 49 | 279 | 0.0 | 2.0 | 0.00 | 0.00 | 0.00 | 92 | 1023.8 |
| 20260509124529 | 48 | 279 | 0.0 | 0.0 | 0.00 | 0.00 | 0.00 | 92 | 1023.7 |
| 20260509124029 | 48 | 279 | 0.0 | 0.0 | 0.00 | 0.00 | 0.00 | 92 | 1023.6 |
| 20260509123029 | 48 | 279 | 0.0 | 0.0 | 0.00 | 0.00 | 0.00 | 93 | 1023.6 |
| 20260509122529 | 48 | 279 | 0.0 | 0.0 | 0.00 | 0.00 | 0.00 | 93 | 1023.7 |
| 20260509122028 | 48 | 279 | 0.0 | 0.0 | 0.00 | 0.00 | 0.00 | 92 | 1023.7 |
| 20260509121530 | 48 | 279 | 0.0 | 0.0 | 0.00 | 0.00 | 0.00 | 92 | 1023.6 |
| 20260509121029 | 48 | 279 | 0.0 | 0.0 | 0.00 | 0.00 | 0.00 | 92 | 1023.7 |
| 20260509120528 | 48 | 279 | 0.0 | 0.0 | 0.00 | 0.00 | 0.00 | 92 | 1023.7 |
| 20260509120027 | 48 | 279 | 0.0 | 0.0 | 0.00 | 0.00 | 0.00 | 92 | 1023.7 |
| 20260509115627 | 48 | 279 | 0.0 | 0.0 | 0.00 | 0.00 | 0.00 | 91 | 1023.6 |
| 20260509115026 | 48 | 279 | 0.0 | 0.0 | 0.00 | 0.00 | 0.00 | 92 | 1023.6 |
| 20260509114526 | 48 | 279 | 0.0 | 0.0 | 0.00 | 0.00 | 0.00 | 92 | 1023.7 |
| 20260509114026 | 47 | 279 | 0.0 | 0.0 | 0.00 | 0.00 | 0.00 | 91 | 1023.7 |
| 20260509113023 | 47 | 279 | 0.0 | 0.0 | 0.00 | 0.00 | 0.00 | 91 | 1023.7 |
| 20260509112523 | 48 | 279 | 0.0 | 0.0 | 0.00 | 0.00 | 0.00 | 91 | 1023.6 |
| 20260509112021 | 48 | 279 | 0.0 | 0.0 | 0.00 | 0.00 | 0.00 | 91 | 1023.6 |
| 20260509111520 | 48 | 279 | 0.0 | 0.0 | 0.00 | 0.00 | 0.00 | 90 | 1023.8 |
| 20260509111020 | 48 | 279 | 0.0 | 0.0 | 0.00 | 0.00 | 0.00 | 90 | 1023.7 |
| 20260509110521 | 49 | 279 | 0.0 | 0.0 | 0.00 | 0.00 | 0.00 | 90 | 1023.7 |
| 20260509110018 | 49 | 279 | 0.0 | 0.0 | 0.00 | 0.00 | 0.00 | 89 | 1023.8 |
| 20260509105517 | 49 | 279 | 0.0 | 0.0 | 0.00 | 0.00 | 0.00 | 89 | 1023.7 |
| 20260509105019 | 49 | 279 | 0.0 | 0.0 | 0.00 | 0.00 | 0.00 | 89 | 1023.8 |
| 20260509104527 | 50 | 279 | 0.0 | 0.0 | 0.00 | 0.00 | 0.00 | 88 | 1023.9 |
| 20260509104015 | 50 | 279 | 0.0 | 0.0 | 0.00 | 0.00 | 0.00 | 88 | 1023.9 |
| 20260509103012 | 51 | 279 | 0.0 | 0.0 | 0.00 | 0.00 | 0.00 | 87 | 1024.0 |
| 20260509102512 | 51 | 279 | 0.0 | 0.0 | 0.00 | 0.00 | 0.00 | 87 | 1023.9 |
| 20260509102011 | 51 | 279 | 0.0 | 0.0 | 0.00 | 0.00 | 0.00 | 86 | 1024.0 |
| 20260509101513 | 51 | 279 | 0.0 | 0.0 | 0.00 | 0.00 | 0.00 | 86 | 1023.9 |
| 20260509101012 | 52 | 279 | 0.0 | 0.0 | 0.00 | 0.00 | 0.00 | 86 | 1024.0 |
| 20260509100507 | 52 | 279 | 0.0 | 0.0 | 0.00 | 0.00 | 0.00 | 85 | 1024.0 |
| 20260509100007 | 52 | 279 | 0.0 | 0.0 | 0.00 | 0.00 | 0.00 | 85 | 1024.1 |
| 20260509095507 | 52 | 279 | 0.0 | 0.0 | 0.00 | 0.00 | 0.00 | 86 | 1024.1 |
| 20260509095005 | 52 | 279 | 0.0 | 0.0 | 0.00 | 0.00 | 0.00 | 86 | 1024.1 |
| 20260509094505 | 52 | 279 | 0.0 | 0.0 | 0.00 | 0.00 | 0.00 | 85 | 1024.1 |
| 20260509094004 | 52 | 279 | 0.0 | 0.0 | 0.00 | 0.00 | 0.00 | 85 | 1024.2 |
| 20260509093006 | 53 | 279 | 0.0 | 1.0 | 0.00 | 0.00 | 0.00 | 84 | 1024.2 |
| 20260509092504 | 53 | 280 | 0.0 | 0.0 | 0.00 | 0.00 | 0.00 | 83 | 1024.3 |
| 20260509092002 | 53 | 280 | 0.0 | 0.0 | 0.00 | 0.00 | 0.00 | 83 | 1024.3 |
| 20260509091504 | 53 | 280 | 0.0 | 0.0 | 0.00 | 0.00 | 0.00 | 83 | 1024.3 |
| 20260509091003 | 53 | 280 | 0.0 | 0.0 | 0.00 | 0.00 | 0.00 | 83 | 1024.3 |
| 20260509090503 | 53 | 280 | 0.0 | 0.0 | 0.00 | 0.00 | 0.00 | 83 | 1024.4 |
| 20260509090003 | 53 | 280 | 0.0 | 0.0 | 0.00 | 0.00 | 0.00 | 83 | 1024.4 |
| 20260509085502 | 53 | 280 | 0.0 | 0.0 | 0.00 | 0.00 | 0.00 | 83 | 1024.4 |
| 20260509085002 | 53 | 280 | 0.0 | 0.0 | 0.00 | 0.00 | 0.00 | 83 | 1024.4 |
| 20260509084504 | 53 | 280 | 0.0 | 0.0 | 0.00 | 0.00 | 0.00 | 83 | 1024.5 |
| 20260509084001 | 53 | 280 | 0.0 | 0.0 | 0.00 | 0.00 | 0.00 | 82 | 1024.4 |
| 20260509083002 | 53 | 280 | 0.0 | 0.0 | 0.00 | 0.00 | 0.00 | 83 | 1024.5 |
| 20260509082503 | 53 | 280 | 0.0 | 0.0 | 0.00 | 0.00 | 0.00 | 82 | 1024.4 |
| 20260509082002 | 53 | 280 | 0.0 | 0.0 | 0.00 | 0.00 | 0.00 | 83 | 1024.5 |
| 20260509081502 | 53 | 280 | 0.0 | 0.0 | 0.00 | 0.00 | 0.00 | 83 | 1024.4 |
| 20260509081004 | 53 | 280 | 0.0 | 0.0 | 0.00 | 0.00 | 0.00 | 83 | 1024.5 |
| 20260509080501 | 53 | 280 | 0.0 | 0.0 | 0.00 | 0.00 | 0.00 | 83 | 1024.5 |
| 20260509080006 | 53 | 280 | 0.0 | 2.0 | 0.00 | 0.00 | 0.00 | 83 | 1024.5 |
| 20260509075503 | 53 | 280 | 0.0 | 2.0 | 0.00 | 0.00 | 0.00 | 82 | 1024.5 |
| 20260509075001 | 54 | 280 | 0.0 | 0.0 | 0.00 | 0.00 | 0.00 | 81 | 1024.5 |
| 20260509074502 | 54 | 280 | 0.0 | 0.0 | 0.00 | 0.00 | 0.00 | 81 | 1024.5 |
| 20260509074002 | 53 | 280 | 0.0 | 0.0 | 0.00 | 0.00 | 0.00 | 82 | 1024.4 |
| 20260509073100 | 53 | 280 | 0.0 | 0.0 | 0.00 | 0.00 | 0.00 | 82 | 1024.3 |
| 20260509072600 | 53 | 280 | 0.0 | 0.0 | 0.00 | 0.00 | 0.00 | 82 | 1024.5 |
| 20260509072102 | 53 | 280 | 0.0 | 0.0 | 0.00 | 0.00 | 0.00 | 81 | 1024.5 |
| 20260509071559 | 53 | 280 | 0.0 | 0.0 | 0.00 | 0.00 | 0.00 | 81 | 1024.5 |
| 20260509071059 | 53 | 280 | 0.0 | 0.0 | 0.00 | 0.00 | 0.00 | 82 | 1024.4 |
| 20260509070559 | 53 | 280 | 0.0 | 0.0 | 0.00 | 0.00 | 0.00 | 82 | 1024.4 |
| 20260509065558 | 54 | 280 | 0.0 | 0.0 | 0.00 | 0.00 | 0.00 | 80 | 1024.3 |
| 20260509065058 | 54 | 280 | 0.0 | 0.0 | 0.00 | 0.00 | 0.00 | 80 | 1024.2 |
| 20260509064617 | 54 | 280 | 0.0 | 0.0 | 0.00 | 0.00 | 0.00 | 79 | 1024.3 |
| 20260509064058 | 54 | 280 | 0.0 | 0.0 | 0.00 | 0.00 | 0.00 | 80 | 1024.3 |
| 20260509063058 | 54 | 280 | 0.0 | 0.0 | 0.00 | 0.00 | 0.00 | 79 | 1024.3 |
| 20260509062557 | 54 | 280 | 0.0 | 0.0 | 0.00 | 0.00 | 0.00 | 80 | 1024.2 |
| 20260509062057 | 54 | 280 | 0.0 | 0.0 | 0.00 | 0.00 | 0.00 | 80 | 1024.2 |
| 20260509061557 | 54 | 280 | 0.0 | 0.0 | 0.00 | 0.00 | 0.00 | 79 | 1024.3 |
| 20260509061056 | 54 | 280 | 0.0 | 0.0 | 0.00 | 0.00 | 0.00 | 79 | 1024.1 |
| 20260509060556 | 54 | 280 | 0.0 | 0.0 | 0.00 | 0.00 | 0.00 | 79 | 1024.2 |
| 20260509060056 | 54 | 280 | 0.0 | 0.0 | 0.00 | 0.00 | 0.00 | 79 | 1024.2 |
| 20260509055556 | 54 | 280 | 0.0 | 2.0 | 0.00 | 0.00 | 0.00 | 79 | 1024.2 |
| 20260509055059 | 54 | 280 | 0.0 | 2.0 | 0.00 | 0.00 | 0.00 | 79 | 1024.2 |
| 20260509054602 | 54 | 280 | 0.0 | 2.0 | 0.00 | 0.00 | 0.00 | 79 | 1024.2 |
| 20260509054059 | 54 | 280 | 0.0 | 0.0 | 0.00 | 0.00 | 0.00 | 80 | 1024.2 |
| 20260509053101 | 53 | 280 | 0.0 | 0.0 | 0.00 | 0.00 | 0.00 | 80 | 1024.1 |
| 20260509052554 | 54 | 280 | 0.0 | 2.0 | 0.00 | 0.00 | 0.00 | 80 | 1024.1 |
| 20260509052054 | 54 | 280 | 0.0 | 2.0 | 0.00 | 0.00 | 0.00 | 80 | 1024.0 |
| 20260509051601 | 53 | 280 | 0.0 | 0.0 | 0.00 | 0.00 | 0.00 | 80 | 1024.1 |
| 20260509051054 | 53 | 280 | 0.0 | 0.0 | 0.00 | 0.00 | 0.00 | 80 | 1024.1 |
| 20260509050557 | 54 | 280 | 0.0 | 0.0 | 0.00 | 0.00 | 0.00 | 80 | 1024.1 |
| 20260509050101 | 54 | 280 | 0.0 | 0.0 | 0.00 | 0.00 | 0.00 | 79 | 1024.1 |
| 20260509045553 | 54 | 280 | 0.0 | 0.0 | 0.00 | 0.00 | 0.00 | 78 | 1024.1 |
| 20260509045053 | 54 | 280 | 0.0 | 0.0 | 0.00 | 0.00 | 0.00 | 78 | 1024.1 |
| 20260509044554 | 54 | 280 | 0.0 | 0.0 | 0.00 | 0.00 | 0.00 | 78 | 1024.1 |
| 20260509044053 | 54 | 280 | 0.0 | 0.0 | 0.00 | 0.00 | 0.00 | 78 | 1024.0 |
| 20260509043056 | 54 | 280 | 0.0 | 1.0 | 0.00 | 0.00 | 0.00 | 78 | 1023.9 |
| 20260509042556 | 54 | 280 | 0.0 | 4.0 | 0.00 | 0.00 | 0.00 | 77 | 1023.8 |
| 20260509042056 | 54 | 280 | 0.0 | 4.0 | 0.00 | 0.00 | 0.00 | 77 | 1023.8 |
| 20260509041556 | 54 | 281 | 0.0 | 3.0 | 0.00 | 0.00 | 0.00 | 75 | 1023.8 |
| 20260509041054 | 55 | 282 | 0.0 | 4.0 | 0.00 | 0.00 | 0.00 | 75 | 1023.7 |
| 20260509040555 | 55 | 283 | 2.0 | 4.0 | 0.00 | 0.00 | 0.00 | 74 | 1023.7 |
| 20260509040054 | 55 | 277 | 1.0 | 4.0 | 0.00 | 0.00 | 0.00 | 74 | 1023.5 |
| 20260509035552 | 55 | 277 | 2.0 | 4.0 | 0.00 | 0.00 | 0.00 | 74 | 1023.4 |
| 20260509035055 | 55 | 277 | 0.0 | 3.0 | 0.00 | 0.00 | 0.00 | 74 | 1023.3 |
| 20260509034551 | 55 | 278 | 1.0 | 3.0 | 0.00 | 0.00 | 0.00 | 73 | 1023.3 |
| 20260509034049 | 55 | 278 | 0.0 | 2.0 | 0.00 | 0.00 | 0.00 | 72 | 1023.1 |
| 20260509033045 | 56 | 278 | 0.0 | 3.0 | 0.00 | 0.00 | 0.00 | 71 | 1023.0 |
| 20260509032545 | 56 | 278 | 0.0 | 3.0 | 0.00 | 0.00 | 0.00 | 70 | 1023.0 |
| 20260509032046 | 57 | 279 | 1.0 | 4.0 | 0.00 | 0.00 | 0.00 | 70 | 1023.0 |
| 20260509031544 | 57 | 279 | 1.0 | 4.0 | 0.00 | 0.00 | 0.00 | 69 | 1023.0 |
| 20260509031043 | 57 | 279 | 1.0 | 4.0 | 0.00 | 0.00 | 0.00 | 68 | 1022.9 |
| 20260509030543 | 57 | 281 | 2.0 | 5.0 | 0.00 | 0.00 | 0.00 | 68 | 1022.8 |
| 20260509030042 | 58 | 280 | 2.0 | 8.0 | 0.00 | 0.00 | 0.00 | 67 | 1022.8 |
| 20260509025542 | 58 | 267 | 3.0 | 8.0 | 0.00 | 0.00 | 0.00 | 67 | 1022.8 |
| 20260509025045 | 58 | 268 | 2.0 | 8.0 | 0.00 | 0.00 | 0.00 | 67 | 1022.7 |
| 20260509024642 | 58 | 248 | 3.0 | 8.0 | 0.00 | 0.00 | 0.00 | 67 | 1022.7 |
| 20260509024042 | 59 | 255 | 4.0 | 9.0 | 0.00 | 0.00 | 0.00 | 65 | 1022.8 |